User: anonymous   Login
Location: Unspecified
(0.0000°N, 0.0000°E)
Time: 07:06:26
(UTC+00:00)
Language:

NOAA 18 - Orbit

View from above orbital plane
View from above orbital plane
View from above satellite
View from above satellite

Ground track
Ground track

The orbit data is extracted from the following two-line orbital elements,

1 28654U 05018A   21336.16885224  .00000115  00000-0  86075-4 0  9997
2 28654  98.9756  41.5415 0014623 165.5971 194.5620 14.12662405852217
Epoch (UTC): 02 December 2021 04:03:08
Eccentricity: 0.0014623
inclination: 98.9756°
perigee height: 840 km
apogee height: 861 km
right ascension of ascending node: 41.5415°
argument of perigee: 165.5971°
revolutions per day: 14.12662405
mean anomaly at epoch: 194.5620°
orbit number at epoch: 85221

The dashed part of the orbit path shows where the satellite is in the earth's shadow,  

DLR